Bloomington, IN

1:19 AM EDT on March 27, 2017 (GMT -0400)
Monroe County

Weather History for KBMG - February, 2012

Change the Weather History Date:

Thursday, February 16, 2012

  Actual Average Record
Temperature  
Mean Temperature 38 °F 33 °F  
Max Temperature 47 °F 43 °F 67 °F (2011)
Min Temperature 29 °F 23 °F -1 °F (2015)
Degree Days  
Heating Degree Days 27 32  
Month to date heating degree days 477 535  
Since 1 July heating degree days 3167 3710  
Cooling Degree Days 0 0  
Month to date cooling degree days 0 0  
Year to date cooling degree days 0 0  
Moisture  
Dew Point 39 °F    
Average Humidity 81    
Maximum Humidity 96    
Minimum Humidity 65    
Precipitation  
Precipitation T in 0.09 in 0.77 in (2006)
Month to date precipitation 0.30 1.70  
Year to date precipitation 3.44 5.01  
Sea Level Pressure  
Sea Level Pressure 30.05 in    
Wind  
Wind Speed 6 mph (West)    
Max Wind Speed 16 mph    
Max Gust Speed 23 mph    
Visibility 5 miles    
Events Rain    
T = Trace of Precipitation, MM = Missing Value Source: NWS Daily Summary

Daily Weather History Graph

Daily Weather History Graph

Search for Another Location

Airport or City:

Trip Planner

Search our weather history database for the weather conditions in past years. The results will help you decide how hot, cold, wet, or windy it might be!

Date:

Astronomy

Feb. 16, 2012 Rise Set
Actual Time 7:37 AM EST 6:24 PM EST
Civil Twilight 7:10 AM EST 6:51 PM EST
Nautical Twilight 6:38 AM EST 7:22 PM EST
Astronomical Twilight 6:07 AM EST 7:53 PM EST
Moon 3:31 AM EST (2/16) 1:16 PM EST (2/16)
Length of Visible Light 11h 41m
Length of Day
10h 46m
Waning Crescent, 28% of the Moon is Illuminated
Feb 16
Waning Crescent
Feb 21
New
Feb 29
First Quarter
Mar 8
Full
Mar 14
Last Quarter

Hourly Weather History & Observations

Time (EST) Temp. Windchill Dew Point Humidity Pressure Visibility Wind Dir Wind Speed Gust Speed Precip Events Conditions
12:53 AM 42.1 °F 40.2 °F 39.9 °F 92% 30.02 in 3.0 mi South 3.5 mph - 0.00 in Rain Light Rain
1:53 AM 42.1 °F 39.2 °F 39.9 °F 92% 29.99 in 3.0 mi SE 4.6 mph - 0.00 in   Overcast
2:50 AM 42.8 °F 38.6 °F 41.0 °F 93% 29.96 in 4.0 mi SSE 6.9 mph - N/A   Overcast
2:53 AM 42.1 °F 37.7 °F 41.0 °F 96% 29.97 in 4.0 mi SSE 6.9 mph - N/A   Overcast
3:09 AM 42.8 °F 38.6 °F 41.0 °F 93% 29.95 in 2.0 mi SSE 6.9 mph - 0.00 in Rain Light Rain
3:21 AM 42.8 °F 39.3 °F 41.0 °F 93% 29.95 in 1.5 mi SSE 5.8 mph - 0.00 in Rain Light Rain
3:29 AM 42.8 °F 40.1 °F 41.0 °F 93% 29.95 in 1.5 mi SSE 4.6 mph - 0.00 in Rain Light Rain
3:45 AM 42.8 °F 40.1 °F 41.0 °F 93% 29.94 in 1.5 mi SSE 4.6 mph - 0.00 in Rain Light Rain
3:53 AM 43.0 °F 39.5 °F 42.1 °F 97% 29.95 in 1.5 mi SSE 5.8 mph - 0.00 in Rain Light Rain
4:34 AM 42.8 °F 41.1 °F 42.8 °F 100% 29.94 in 2.0 mi SE 3.5 mph - 0.00 in   Overcast
4:46 AM 42.8 °F 41.1 °F 42.8 °F 100% 29.95 in 1.5 mi SE 3.5 mph - 0.00 in   Overcast
5:53 AM 43.0 °F - 42.1 °F 97% 29.96 in 1.2 mi Calm Calm - 0.00 in Rain Light Rain
6:23 AM 44.6 °F 43.1 °F 42.8 °F 93% 29.96 in 2.5 mi WSW 3.5 mph - 0.00 in   Overcast
6:42 AM 44.6 °F 41.4 °F 44.6 °F 100% 29.96 in 3.0 mi WSW 5.8 mph - 0.00 in   Overcast
6:53 AM 45.0 °F 43.5 °F 44.1 °F 97% 29.96 in 2.5 mi West 3.5 mph - 0.00 in   Overcast
7:05 AM 44.6 °F 43.1 °F 44.6 °F 100% 29.95 in 3.0 mi West 3.5 mph - N/A   Overcast
7:53 AM 46.0 °F 41.9 °F 44.1 °F 93% 29.97 in 9.0 mi West 8.1 mph - N/A   Overcast
8:53 AM 45.0 °F 40.1 °F 43.0 °F 93% 30.01 in 6.0 mi West 9.2 mph - N/A   Overcast
9:30 AM 44.6 °F 39.2 °F 42.8 °F 93% 30.02 in 2.0 mi WNW 10.4 mph - 0.00 in Rain Light Rain
9:44 AM 44.6 °F 40.2 °F 42.8 °F 93% 30.02 in 4.0 mi WNW 8.1 mph - 0.00 in   Overcast
9:53 AM 45.0 °F 40.6 °F 43.0 °F 93% 30.04 in 6.0 mi West 8.1 mph - 0.00 in   Overcast
10:53 AM 45.0 °F 40.6 °F 42.1 °F 90% 30.06 in 10.0 mi West 8.1 mph - 0.00 in   Overcast
11:11 AM 44.6 °F 40.2 °F 42.8 °F 93% 30.06 in 10.0 mi West 8.1 mph - N/A   Overcast
11:53 AM 45.0 °F 39.3 °F 41.0 °F 86% 30.08 in 10.0 mi WNW 11.5 mph 19.6 mph N/A   Overcast
12:06 PM 44.6 °F 38.1 °F 41.0 °F 87% 30.08 in 10.0 mi WNW 13.8 mph 19.6 mph N/A   Overcast
12:53 PM 44.1 °F 40.8 °F 39.9 °F 85% 30.10 in 10.0 mi West 5.8 mph - N/A   Overcast
1:09 PM 44.6 °F 39.7 °F 39.2 °F 81% 30.09 in 10.0 mi WNW 9.2 mph 23.0 mph N/A   Overcast
1:34 PM 44.6 °F 39.2 °F 39.2 °F 81% 30.09 in 9.0 mi WNW 10.4 mph 18.4 mph N/A   Overcast
1:53 PM 45.0 °F 40.1 °F 37.9 °F 76% 30.09 in 9.0 mi West 9.2 mph 18.4 mph N/A   Mostly Cloudy
2:01 PM 46.4 °F 42.4 °F 37.4 °F 71% 30.08 in 9.0 mi NW 8.1 mph - N/A   Mostly Cloudy
2:53 PM 46.0 °F 41.4 °F 36.0 °F 68% 30.10 in 9.0 mi NW 9.2 mph - N/A   Mostly Cloudy
3:15 PM 44.6 °F 39.7 °F 35.6 °F 71% 30.10 in 8.0 mi WNW 9.2 mph 19.6 mph N/A   Mostly Cloudy
3:31 PM 44.6 °F 39.2 °F 35.6 °F 71% 30.10 in 7.0 mi WNW 10.4 mph 17.3 mph N/A   Overcast
4:26 PM 46.4 °F 42.9 °F 35.6 °F 66% 30.11 in 7.0 mi Variable 6.9 mph - N/A   Scattered Clouds
4:53 PM 45.0 °F 40.6 °F 34.0 °F 65% 30.13 in 8.0 mi NW 8.1 mph - N/A   Mostly Cloudy
6:53 PM 42.1 °F 35.7 °F 33.1 °F 70% 30.16 in 8.0 mi NW 11.5 mph 18.4 mph N/A   Scattered Clouds
7:53 PM 39.0 °F 36.8 °F 30.9 °F 73% 30.17 in 9.0 mi NW 3.5 mph - N/A   Clear
8:53 PM 33.1 °F - 30.0 °F 89% 30.18 in 7.0 mi Calm Calm - N/A   Clear
9:53 PM 32.0 °F - 28.9 °F 88% 30.20 in 5.0 mi Calm Calm - N/A   Clear
10:53 PM 30.9 °F - 28.0 °F 89% 30.20 in 3.0 mi Calm Calm - N/A   Clear
11:08 PM 30.2 °F - 28.4 °F 93% 30.17 in 2.5 mi Calm Calm - N/A   Clear
11:53 PM 28.9 °F - 26.1 °F 89% 30.19 in 3.0 mi Calm Calm - N/A   Clear